Tracking 18784 objects as of 18-August-2017
HD Live streaming from Space Station
objects crossing your sky now

GOES 7

Track GOES 7 now!
GOES 7 is classified as:


NORAD ID: 17561
Int'l Code: 1987-022A
Perigee: 35,882.6 km
Apogee: 35,918.2 km
Inclination: 15.1 °
Period: 1,441.5 minutes
Semi major axis: 42271 km
RCS: 10.3409 m2 (large)
Launch date: February 26, 1987
Source: United States (US)
Launch site: AIR FORCE EASTERN TEST RANGE (AFETR)
Your satellite tracking list
Your tracking list is empty





NASA's NSSDC Master Catalog

Two Line Element Set (TLE):
1 17561U 87022A   17229.37445021 -.00000250 +00000-0 +00000-0 0  9994
2 17561 015.1468 005.1687 0004204 290.0055 263.4312 00.99892478094735
Source of the keplerian elements: AFSPC